Location: Hastringsfeld
(50.9620°N, 10.4787°E)
Time: 04:47:28
(UTC+00:00)

USA 229 - Pass Details

Date: 26 September 2023
Orbit: 905 x 1306 km, 63.4° (Epoch: 10 November)

Event Time Altitude Azimuth Distance (km) Brightness Sun altitude
Rises 03:48:39 0° 314° (NW) 3,904 6.3 -13.5°
Reaches altitude 10° 03:51:15 10° 317° (NW) 3,001 5.8 -13.1°
Maximum altitude 03:58:30 71° 41° (NE) 1,268 4.3 -12.0°
Drops below altitude 10° 04:06:22 10° 125° (SE) 3,254 6.9 -10.8°
Sets 04:09:17 0° 128° (SE) 4,251 7.5 -10.3°
